[[{"header":{"parameterUnit":"m.s-1","parameterCategory":2,"la1":30.2991,"la2":30.254,"lo1":-89.0895,"lo2":-89.0444,"dy":0.0017,"dx":0.0017,"nx":28,"ny":28,"refTime":"2023-10-31T09:00:00:Z","depth":"0","parameterNumber":2,"parameterNumberName":"U-component_of_CURRENTS"},"data":[0,0,0,0,0,0,0,0,0,0,0,0,0,0,0,0,0,0,0,0,0,0,0,0,0,0,0,0,0,0,0,0,0,0,0,0,0,0,0,0,0,0,0,0,0,0,0,0,0,0,0,0,0,0,0,0,0,0,0.1999,0.2,0,0.2018,0.2018,0.2018,0.2012,0.2012,0.2012,0.2012,0.1991,0.1991,0.199,0,0,0,0,0,0,0,0,0,0,0,0,0,0.1942,0.1943,0.1999,0.2,0.2,0.2018,0.2018,0.2018,0.2012,0.2012,0.2012,0.2012,0.1991,0.1991,0.199,0,0,0,0,0,0,0,0,0,0,0,0,0,0.1962,0.1944,0.1999,0.2002,0.2003,0.2018,0.2018,0.2018,0.2012,0.2012,0.2012,0.2012,0.1991,0.1991,0.199,0.1989,0,0,0.1988,0.1988,0,0,0,0,0,0,0,0,0.1961,0.1963,0.2001,0.2002,0.2003,0.2015,0.199,0.2007,0.2012,0.2006,0.2012,0.2012,0.1998,0.1996,0.1996,0.1988,0.1987,0.1988,0.1987,0.1987,0.1987,0,0,0,0,0,0,0,0.1959,0.1963,0.2004,0.2002,0.2003,0.1997,0.1999,0.1993,0.1999,0.2006,0.2007,0.2013,0.1997,0.1997,0.1996,0.1987,0.1988,0.1987,0.1987,0.1987,0.2011,0.2012,0,0,0,0,0,0,0.1964,0.1962,0.2003,0.2005,0.1984,0.1998,0.2,0.2009,0.2,0.2,0.2014,0.2013,0.1998,0.1997,0.1995,0.2023,0.1987,0.1986,0.1986,0.201,0.2012,0.2013,0,0,0,0,0,0,0.1963,0.1968,0.2002,0.1985,0.199,0.2,0.2009,0.2009,0.2014,0.2007,0.2005,0.2018,0.1998,0.1996,0.2001,0.2021,0.1986,0.1986,0.2009,0.2011,0.2012,0.206,0,0,0,0,0,0,0.1961,0.1967,0.1972,0.1986,0.1991,0.202,0.2009,0.201,0.202,0.2019,0.201,0.2008,0.1998,0.2002,0.2001,0.202,0.1985,0.2008,0.201,0.2012,0.2057,0.2063,0.2069,0,0,0,0,0,0.1959,0.1967,0.1972,0.1977,0.1999,0.2021,0.2023,0.2026,0.202,0.2028,0.2024,0.2008,0.2014,0.2003,0.2,0.202,0.2007,0.2009,0.2011,0.2055,0.2062,0.2068,0,0,0,0,0,0,0.194,0.1969,0.1974,0.1989,0.2008,0.2021,0.2028,0.203,0.2033,0.203,0.2018,0.2016,0.2028,0.2018,0.2006,0.2034,0.201,0.2012,0.2044,0.205,0.2056,0.2059,0.1984,0,0,0,0,0,0.1941,0.1957,0.1982,0.1994,0.2005,0.2017,0.2025,0.2031,0.2037,0.2038,0.2033,0.2031,0.2036,0.2038,0.2036,0.2049,0.2056,0.2062,0.2067,0.2072,0.2075,0.2105,0.2113,0.2021,0.2021,0.2021,0,0,0.1935,0.1954,0.1961,0.1991,0.2004,0.2027,0.2021,0.2039,0.2055,0.2035,0.2048,0.2046,0.2043,0.206,0.2065,0.2055,0.2106,0.2075,0.2079,0.2079,0.2108,0.2117,0.2125,0.2022,0.2022,0.2022,0,0,0.1938,0.1952,0.197,0.199,0.202,0.2032,0.2041,0.2059,0.2065,0.2082,0.2075,0.2088,0.2089,0.2098,0.2101,0.2137,0.2133,0.2137,0.2169,0.2199,0.2207,0.2214,0.2251,0.2261,0.2142,0.2142,0.2142,0,0.1929,0.1959,0.1977,0.2003,0.2022,0.2038,0.2062,0.2074,0.2091,0.2104,0.2092,0.2115,0.211,0.2142,0.2156,0.215,0.2167,0.2143,0.2207,0.2214,0.222,0.2256,0.2266,0.2145,0.2144,0.2144,0.2144,0,0.195,0.1975,0.1988,0.2029,0.2051,0.2074,0.2101,0.212,0.2129,0.2143,0.2172,0.217,0.2187,0.2191,0.2182,0.2228,0.2228,0.2209,0.2189,0.2232,0.2268,0.2278,0.2148,0.2147,0.2147,0.2146,0,0,0.1925,0.1991,0.1995,0.2021,0.2068,0.2087,0.2124,0.2164,0.2193,0.2205,0.2243,0.2253,0.2255,0.2259,0.2255,0.2279,0.2342,0.2265,0.2266,0.2303,0.242,0.2473,0.2488,0.2335,0.2336,0.2338,0.2433,0,0.1936,0.1989,0.202,0.2066,0.2095,0.2129,0.2161,0.2198,0.2228,0.2268,0.2279,0.2306,0.2281,0.2293,0.2316,0.2336,0.2367,0.2318,0.2372,0.2374,0.2416,0.2501,0.2538,0.2631,0.2442,0.2444,0.2445,0,0.1944,0.1983,0.2031,0.2093,0.2109,0.2136,0.22,0.2233,0.2294,0.232,0.2355,0.2363,0.2406,0.2371,0.2434,0.2406,0.2418,0.2427,0.2431,0.2468,0.2446,0.2554,0.2655,0.2655,0.246,0.2458,0.2457,0,0.1918,0.1987,0.2027,0.2048,0.212,0.2146,0.2182,0.2245,0.2289,0.2354,0.2395,0.2436,0.2471,0.2489,0.2516,0.2479,0.2589,0.2538,0.2598,0.2601,0.2638,0.2643,0.2744,0.2582,0.2582,0.2581,0.2581,0,0.1915,0.1943,0.2017,0.2038,0.2081,0.2134,0.2187,0.2234,0.2318,0.2373,0.2414,0.2473,0.2502,0.2563,0.256,0.2638,0.2631,0.2631,0.2641,0.2658,0.2663,0.2666,0.2659,0.2585,0.2584,0.2583,0.2583,0,0.1872,0.1925,0.197,0.2047,0.2069,0.2096,0.2186,0.223,0.2314,0.2391,0.2415,0.253,0.2622,0.2661,0.272,0.2717,0.2748,0.2781,0.281,0.2822,0.2862,0.2856,0.2887,0.2768,0.2865,0.2867,0.2869,0,0.1852,0.1875,0.1957,0.1984,0.2016,0.207,0.2107,0.2208,0.2266,0.242,0.2458,0.2593,0.2684,0.2832,0.2886,0.2945,0.2844,0.2978,0.2908,0.2906,0.2905,0.28,0.2685,0.2978,0.298,0.2982,0.2984,0,0.1809,0.1844,0.1884,0.1941,0.1983,0.2033,0.2101,0.2152,0.227,0.2359,0.2494,0.259,0.2793,0.2919,0.3034,0.3056,0.2937,0.3022,0.3014,0.3016,0.2915,0.2791,0.287,0.3002,0.3,0.2999,0.2998,0.2997,0.1767,0.1785,0.1845,0.1891,0.1938,0.1984,0.2,0.2099,0.2193,0.2318,0.2467,0.262,0.289,0.3094,0.31,0.3208,0.3074,0.3172,0.3171,0.3065,0.2941,0.3073,0.3213,0.3213,0.3212,0.3212,0.3211,0,0.1704,0.1746,0.1793,0.1842,0.186,0.1915,0.1983,0.1999,0.2074,0.226,0.2393,0.2735,0.2967,0.315,0.3381,0.336,0.3186,0.3326,0.3185,0.3054,0.3203,0.3199,0.3351,0.3351,0.3351,0.3351,0.3351,0.3351,0.1675,0.1697,0.1731,0.1748,0.1781,0.1777,0.1797,0.1851,0.1967,0.2174,0.2383,0.2593,0.3038,0.3539,0.3662,0.3579,0.3288,0.3314,0.3142,0.3306,0.3289,0.3273,0.3267,0.3431,0.3431,0.2902,0.2899,0.2897]},{"header":{"parameterUnit":"m.s-1","parameterCategory":2,"la1":30.2991,"la2":30.254,"lo1":-89.0895,"lo2":-89.0444,"dy":0.0017,"dx":0.0017,"nx":28,"ny":28,"refTime":"2023-10-31T09:00:00:Z","depth":"0","parameterNumber":3,"parameterNumberName":"V-component_of_CURRENTS"},"data":[0,0,0,0,0,0,0,0,0,0,0,0,0,0,0,0,0,0,0,0,0,0,0,0,0,0,0,0,0,0,0,0,0,0,0,0,0,0,0,0,0,0,0,0,0,0,0,0,0,0,0,0,0,0,0,0,0,0,-0.0814,-0.0815,0,-0.0848,-0.0848,-0.0849,-0.0869,-0.0869,-0.087,-0.087,-0.0914,-0.0915,-0.0916,0,0,0,0,0,0,0,0,0,0,0,0,0,-0.0816,-0.0816,-0.0814,-0.0815,-0.0815,-0.0848,-0.0848,-0.0849,-0.0869,-0.0869,-0.087,-0.087,-0.0913,-0.0915,-0.0916,0,0,0,0,0,0,0,0,0,0,0,0,0,-0.083,-0.0816,-0.0814,-0.0829,-0.083,-0.0848,-0.0848,-0.0849,-0.0869,-0.0869,-0.087,-0.087,-0.0913,-0.0915,-0.0916,-0.0925,0,0,-0.0922,-0.0922,0,0,0,0,0,0,0,0,-0.0829,-0.083,-0.0826,-0.0828,-0.0829,-0.0854,-0.0865,-0.0875,-0.0869,-0.0855,-0.087,-0.087,-0.0894,-0.0897,-0.0905,-0.0928,-0.0929,-0.0922,-0.0923,-0.0923,-0.0924,0,0,0,0,0,0,0,-0.0828,-0.0829,-0.0828,-0.0826,-0.0829,-0.085,-0.0852,-0.0867,-0.0875,-0.0856,-0.0858,-0.0861,-0.0895,-0.0903,-0.0906,-0.093,-0.0922,-0.0923,-0.0924,-0.0925,-0.0953,-0.0953,0,0,0,0,0,0,-0.0819,-0.0827,-0.0827,-0.0829,-0.0829,-0.085,-0.0852,-0.0847,-0.0874,-0.0878,-0.086,-0.0861,-0.09,-0.0904,-0.0907,-0.0902,-0.0923,-0.0925,-0.0926,-0.0953,-0.0953,-0.0953,0,0,0,0,0,0,-0.0819,-0.0819,-0.0826,-0.0829,-0.0831,-0.0849,-0.0844,-0.0847,-0.0853,-0.0877,-0.0881,-0.0862,-0.09,-0.0905,-0.0913,-0.0904,-0.0926,-0.0927,-0.0954,-0.0953,-0.0953,-0.0902,0,0,0,0,0,0,-0.0819,-0.0818,-0.0813,-0.0828,-0.0831,-0.0829,-0.0844,-0.0848,-0.0854,-0.0856,-0.088,-0.0884,-0.09,-0.091,-0.0915,-0.0907,-0.0929,-0.0954,-0.0954,-0.0953,-0.0904,-0.09,-0.0897,0,0,0,0,0,-0.0819,-0.0806,-0.0812,-0.0813,-0.0822,-0.0829,-0.0832,-0.0846,-0.0854,-0.0853,-0.0867,-0.0883,-0.0911,-0.0911,-0.0917,-0.0909,-0.0954,-0.0954,-0.0953,-0.0906,-0.0901,-0.0897,0,0,0,0,0,0,-0.0806,-0.0808,-0.0815,-0.0804,-0.0814,-0.0832,-0.0832,-0.0843,-0.0854,-0.0855,-0.0879,-0.0884,-0.0889,-0.0907,-0.0907,-0.0917,-0.0936,-0.0936,-0.0898,-0.0894,-0.089,-0.087,-0.093,0,0,0,0,0,-0.08,-0.079,-0.0801,-0.0794,-0.0796,-0.0814,-0.082,-0.0829,-0.0841,-0.0846,-0.0863,-0.088,-0.0892,-0.0898,-0.0913,-0.0917,-0.0933,-0.0917,-0.0913,-0.091,-0.0897,-0.0916,-0.0912,-0.0951,-0.0951,-0.0951,0,0,-0.0793,-0.0793,-0.0788,-0.0791,-0.0799,-0.0792,-0.0817,-0.0819,-0.0812,-0.0849,-0.0845,-0.0868,-0.089,-0.0893,-0.0897,-0.0906,-0.0908,-0.0909,-0.0906,-0.0895,-0.0914,-0.0911,-0.0907,-0.095,-0.0951,-0.0951,0,0,-0.0768,-0.0774,-0.0754,-0.0759,-0.0766,-0.0777,-0.0775,-0.079,-0.0795,-0.0798,-0.082,-0.0833,-0.0856,-0.0866,-0.0875,-0.086,-0.0888,-0.087,-0.0832,-0.085,-0.0847,-0.0844,-0.0862,-0.0861,-0.0867,-0.0867,-0.0867,0,-0.0758,-0.0734,-0.0752,-0.0737,-0.0731,-0.0765,-0.0742,-0.0755,-0.0771,-0.0769,-0.0789,-0.0814,-0.0839,-0.0835,-0.0832,-0.085,-0.0865,-0.0846,-0.0844,-0.0842,-0.084,-0.0859,-0.0858,-0.0864,-0.0864,-0.0865,-0.0865,0,-0.0716,-0.0702,-0.0692,-0.0679,-0.0679,-0.0668,-0.0683,-0.0687,-0.0702,-0.0714,-0.0719,-0.0755,-0.0768,-0.0783,-0.0803,-0.0799,-0.0817,-0.0838,-0.0853,-0.0833,-0.0854,-0.0855,-0.0861,-0.0861,-0.0862,-0.0863,0,0,-0.0672,-0.0662,-0.0656,-0.0637,-0.0644,-0.0634,-0.0627,-0.0621,-0.0604,-0.0641,-0.0623,-0.066,-0.0687,-0.0698,-0.0731,-0.0749,-0.0758,-0.0784,-0.0786,-0.0795,-0.0797,-0.0831,-0.0836,-0.078,-0.0779,-0.0779,-0.0818,0,-0.0628,-0.0583,-0.0592,-0.0548,-0.0522,-0.0548,-0.053,-0.0535,-0.0551,-0.0549,-0.0596,-0.0598,-0.0653,-0.0657,-0.0685,-0.0735,-0.0757,-0.0746,-0.082,-0.0822,-0.085,-0.0836,-0.0889,-0.093,-0.0818,-0.0819,-0.0819,0,-0.0568,-0.0546,-0.0492,-0.0464,-0.0454,-0.0436,-0.0408,-0.0404,-0.0422,-0.0434,-0.0461,-0.0503,-0.0535,-0.0587,-0.0663,-0.0653,-0.0718,-0.0764,-0.0767,-0.0814,-0.0857,-0.0932,-0.0936,-0.1172,-0.082,-0.082,-0.082,0,-0.05,-0.047,-0.0419,-0.0411,-0.039,-0.0367,-0.036,-0.0362,-0.0339,-0.0366,-0.0353,-0.0414,-0.0432,-0.0519,-0.0629,-0.0643,-0.0715,-0.075,-0.0841,-0.0845,-0.0911,-0.092,-0.1145,-0.0802,-0.0802,-0.0802,-0.0802,0,-0.0432,-0.039,-0.0383,-0.0351,-0.0286,-0.0301,-0.024,-0.0246,-0.024,-0.0202,-0.0289,-0.0271,-0.0415,-0.0481,-0.0594,-0.0716,-0.0692,-0.0827,-0.0854,-0.0896,-0.0903,-0.1129,-0.1253,-0.0804,-0.0803,-0.0803,-0.0803,0,-0.0348,-0.0349,-0.0287,-0.026,-0.0246,-0.0199,-0.0159,-0.0121,-0.013,-0.0086,-0.0088,-0.0157,-0.0248,-0.0396,-0.0536,-0.0659,-0.0929,-0.083,-0.087,-0.0901,-0.1213,-0.133,-0.1558,-0.1702,-0.0936,-0.0937,-0.0938,0,-0.0294,-0.0254,-0.021,-0.0174,-0.0156,-0.0102,-0.006,-0.0059,-0.0018,-0.0006,0.0028,-0.0051,-0.0094,-0.0323,-0.0563,-0.0771,-0.0976,-0.0959,-0.1001,-0.1236,-0.1387,-0.1473,-0.1584,-0.1072,-0.1074,-0.1076,-0.1077,0,-0.0188,-0.0178,-0.0134,-0.0067,-0.0017,0.004,0.0094,0.0146,0.0152,0.0185,0.0215,0.0179,-0.0062,-0.0307,-0.0615,-0.078,-0.1177,-0.0997,-0.1237,-0.1508,-0.1619,-0.1768,-0.1042,-0.1091,-0.1089,-0.1088,-0.1087,-0.1087,-0.0106,-0.0061,-0.0017,0.0047,0.0102,0.0173,0.0225,0.0281,0.0352,0.0394,0.0355,0.0304,-0.0081,-0.0515,-0.0771,-0.1312,-0.1292,-0.1475,-0.1594,-0.1654,-0.1819,-0.1119,-0.12,-0.12,-0.1199,-0.1198,-0.1198,0,-0.0005,0.0025,0.0091,0.0158,0.0221,0.0229,0.0322,0.0364,0.0446,0.0467,0.0475,0.0205,-0.0263,-0.0744,-0.1424,-0.182,-0.1997,-0.2061,-0.2223,-0.2306,-0.1682,-0.1716,-0.1918,-0.1918,-0.1918,-0.1917,-0.1917,-0.1917,0.0048,0.0121,0.0138,0.0245,0.0288,0.0363,0.0411,0.0474,0.0498,0.047,0.0383,0.029,-0.0194,-0.1328,-0.2197,-0.2389,-0.2762,-0.2815,-0.2978,-0.2583,-0.2538,-0.2495,-0.2558,-0.2933,-0.2934,-0.358,-0.3587,-0.3591]}],[{"header":{"parameterUnit":"m.s-1","parameterCategory":2,"la1":30.2991,"la2":30.254,"lo1":-89.0895,"lo2":-89.0444,"dy":0.0017,"dx":0.0017,"nx":28,"ny":28,"refTime":"2023-10-31T09:00:00:Z","depth":"2","parameterNumber":2,"parameterNumberName":"U-component_of_CURRENTS"},"data":[0,0,0,0,0,0,0,0,0,0,0,0,0,0,0,0,0,0,0,0,0,0,0,0,0,0,0,0,0,0,0,0,0,0,0,0,0,0,0,0,0,0,0,0,0,0,0,0,0,0,0,0,0,0,0,0,0,0,0.2002,0.2002,0,0.202,0.202,0.202,0.2015,0.2015,0.2015,0.2015,0.1995,0.1994,0.1994,0,0,0,0,0,0,0,0,0,0,0,0,0,0.1945,0.1946,0.2002,0.2002,0.2003,0.202,0.202,0.202,0.2015,0.2015,0.2015,0.2015,0.1995,0.1995,0.1994,0,0,0,0,0,0,0,0,0,0,0,0,0,0.1965,0.1946,0.2002,0.2005,0.2005,0.202,0.202,0.202,0.2015,0.2015,0.2015,0.2015,0.1995,0.1995,0.1994,0.1993,0,0,0.1992,0.1992,0,0,0,0,0,0,0,0,0.1964,0.1966,0.2004,0.2005,0.2005,0.2018,0.1993,0.201,0.2015,0.2008,0.2015,0.2015,0.2001,0.2,0.2,0.1992,0.1991,0.1992,0.1992,0.1991,0.1991,0,0,0,0,0,0,0,0.1962,0.1965,0.2006,0.2004,0.2005,0.1999,0.2002,0.1996,0.2002,0.2009,0.2009,0.2016,0.2001,0.2001,0.2,0.1991,0.1992,0.1991,0.1991,0.1991,0.2016,0.2017,0,0,0,0,0,0,0.1967,0.1964,0.2006,0.2007,0.1987,0.2001,0.2003,0.2012,0.2003,0.2003,0.2016,0.2016,0.2002,0.2,0.1999,0.2027,0.1991,0.1991,0.199,0.2015,0.2017,0.2018,0,0,0,0,0,0,0.1966,0.1971,0.2005,0.1988,0.1993,0.2002,0.2011,0.2012,0.2017,0.201,0.2008,0.2021,0.2002,0.2,0.2005,0.2025,0.199,0.199,0.2014,0.2016,0.2017,0.2065,0,0,0,0,0,0,0.1964,0.197,0.1975,0.1989,0.1994,0.2022,0.2012,0.2013,0.2022,0.2022,0.2013,0.2011,0.2001,0.2006,0.2005,0.2024,0.1989,0.2013,0.2015,0.2017,0.2062,0.2068,0.2073,0,0,0,0,0,0.1962,0.197,0.1975,0.198,0.2001,0.2023,0.2025,0.2029,0.2023,0.2031,0.2027,0.2012,0.2018,0.2007,0.2004,0.2024,0.2012,0.2014,0.2017,0.206,0.2067,0.2073,0,0,0,0,0,0,0.1943,0.1971,0.1977,0.1992,0.2011,0.2024,0.2031,0.2033,0.2036,0.2033,0.2021,0.2019,0.2032,0.2022,0.201,0.2038,0.2014,0.2016,0.2048,0.2054,0.206,0.2064,0.1989,0,0,0,0,0,0.1944,0.196,0.1985,0.1997,0.2008,0.202,0.2028,0.2034,0.204,0.2041,0.2036,0.2034,0.204,0.2042,0.2041,0.2053,0.2061,0.2067,0.2072,0.2077,0.2079,0.2109,0.2118,0.2026,0.2026,0.2026,0,0,0.1938,0.1958,0.1964,0.1994,0.2007,0.203,0.2024,0.2042,0.2058,0.2038,0.2051,0.205,0.2047,0.2064,0.207,0.2059,0.2111,0.208,0.2084,0.2084,0.2113,0.2122,0.213,0.2027,0.2027,0.2027,0,0,0.1942,0.1955,0.1973,0.1994,0.2023,0.2035,0.2044,0.2062,0.2069,0.2085,0.2078,0.2092,0.2093,0.2102,0.2106,0.2141,0.2137,0.2141,0.2174,0.2203,0.2211,0.2218,0.2255,0.2264,0.2146,0.2146,0.2146,0,0.1932,0.1962,0.198,0.2006,0.2025,0.2041,0.2065,0.2078,0.2094,0.2107,0.2096,0.2119,0.2114,0.2146,0.216,0.2154,0.2171,0.2148,0.2211,0.2217,0.2224,0.226,0.227,0.2149,0.2149,0.2148,0.2148,0,0.1954,0.1979,0.1992,0.2032,0.2054,0.2077,0.2104,0.2123,0.2132,0.2146,0.2175,0.2173,0.219,0.2194,0.2186,0.2232,0.2231,0.2213,0.2193,0.2236,0.2271,0.2281,0.2153,0.2152,0.2151,0.215,0,0,0.1929,0.1994,0.1999,0.2024,0.2071,0.209,0.2127,0.2167,0.2196,0.2208,0.2245,0.2257,0.2258,0.2262,0.2259,0.2282,0.2345,0.2269,0.2269,0.2306,0.2422,0.2473,0.2488,0.2338,0.2339,0.2341,0.2435,0,0.194,0.1993,0.2024,0.2069,0.2098,0.2132,0.2164,0.2201,0.2231,0.227,0.2282,0.2309,0.2284,0.2297,0.2319,0.2339,0.237,0.2321,0.2375,0.2377,0.2417,0.2501,0.2239,0.2306,0.2444,0.2445,0.2447,0,0.1948,0.1986,0.2034,0.2096,0.2111,0.2139,0.2202,0.2235,0.2296,0.2322,0.2358,0.2365,0.2409,0.2374,0.2436,0.2408,0.242,0.2429,0.2433,0.2469,0.2446,0.2282,0.2318,0.2463,0.2461,0.246,0.2459,0,0.1921,0.199,0.203,0.2051,0.2122,0.2148,0.2184,0.2247,0.2291,0.2356,0.2397,0.2438,0.2473,0.249,0.2517,0.248,0.259,0.2539,0.2597,0.2601,0.2383,0.2366,0.2583,0.2583,0.2582,0.2582,0.2582,0,0.1918,0.1946,0.202,0.2041,0.2084,0.2136,0.2189,0.2236,0.232,0.2374,0.2416,0.2475,0.2504,0.2564,0.2561,0.2637,0.2631,0.263,0.2639,0.2397,0.2381,0.2508,0.2498,0.2586,0.2585,0.2584,0.2584,0,0.1875,0.1928,0.1973,0.205,0.2071,0.2098,0.2189,0.2232,0.2316,0.2393,0.2417,0.2531,0.2623,0.2661,0.2719,0.2716,0.276,0.2778,0.2509,0.2487,0.2734,0.2725,0.2854,0.2857,0.286,0.2862,0.2863,0,0.1855,0.1878,0.196,0.1986,0.2019,0.2073,0.211,0.221,0.2268,0.2421,0.2459,0.2593,0.2673,0.2819,0.2798,0.2836,0.2864,0.2662,0.2551,0.2772,0.2767,0.2754,0.2743,0.2269,0.2266,0.2263,0.2261,0,0.1812,0.1846,0.1886,0.1944,0.1985,0.2035,0.2103,0.2153,0.2271,0.2352,0.2487,0.2572,0.2702,0.2658,0.2743,0.2715,0.2637,0.2617,0.2901,0.2273,0.2237,0.2227,0.2231,0.2237,0.2239,0.2241,0.2243,0.2243,0.1769,0.1787,0.1848,0.1894,0.194,0.1986,0.2002,0.2075,0.2158,0.2228,0.2392,0.2429,0.2494,0.25,0.2456,0.2414,0.2587,0.2469,0.2468,0.2473,0.2421,0.2394,0.2413,0.2416,0.2419,0.2422,0.2424,0,0.1701,0.1749,0.1795,0.1844,0.1853,0.1917,0.1985,0.1969,0.2002,0.209,0.216,0.2051,0.2057,0.2126,0.2014,0.2068,0.1937,0.2012,0.1794,0.1823,0.1847,0.1753,0.1574,0.1571,0.1569,0.1566,0,0,0.1671,0.1688,0.1723,0.1732,0.1772,0.1752,0.1772,0.1766,0.1801,0.179,0.1787,0.191,0.206,0.1769,0.1761,0.1655,0.1708,0.1587,0.227,0.2041,0.2061,0.2123,0.2017,0,0,0,0,0]},{"header":{"parameterUnit":"m.s-1","parameterCategory":2,"la1":30.2991,"la2":30.254,"lo1":-89.0895,"lo2":-89.0444,"dy":0.0017,"dx":0.0017,"nx":28,"ny":28,"refTime":"2023-10-31T09:00:00:Z","depth":"2","parameterNumber":3,"parameterNumberName":"V-component_of_CURRENTS"},"data":[0,0,0,0,0,0,0,0,0,0,0,0,0,0,0,0,0,0,0,0,0,0,0,0,0,0,0,0,0,0,0,0,0,0,0,0,0,0,0,0,0,0,0,0,0,0,0,0,0,0,0,0,0,0,0,0,0,0,-0.0759,-0.0759,0,-0.0792,-0.0792,-0.0793,-0.0814,-0.0814,-0.0814,-0.0814,-0.0859,-0.086,-0.0861,0,0,0,0,0,0,0,0,0,0,0,0,0,-0.0763,-0.0763,-0.0759,-0.076,-0.076,-0.0792,-0.0792,-0.0793,-0.0814,-0.0814,-0.0814,-0.0814,-0.0859,-0.086,-0.0861,0,0,0,0,0,0,0,0,0,0,0,0,0,-0.0776,-0.0762,-0.0759,-0.0774,-0.0775,-0.0792,-0.0792,-0.0793,-0.0814,-0.0814,-0.0814,-0.0814,-0.0858,-0.086,-0.0861,-0.0869,0,0,-0.0867,-0.0867,0,0,0,0,0,0,0,0,-0.0775,-0.0775,-0.0771,-0.0773,-0.0775,-0.0798,-0.081,-0.0819,-0.0814,-0.08,-0.0814,-0.0814,-0.0839,-0.0843,-0.0849,-0.0871,-0.0873,-0.0867,-0.0868,-0.0868,-0.0869,0,0,0,0,0,0,0,-0.0774,-0.0774,-0.0773,-0.0772,-0.0774,-0.0795,-0.0797,-0.0812,-0.0819,-0.0801,-0.0803,-0.0805,-0.084,-0.0847,-0.085,-0.0874,-0.0867,-0.0868,-0.0869,-0.087,-0.0897,-0.0897,0,0,0,0,0,0,-0.0766,-0.0773,-0.0772,-0.0774,-0.0774,-0.0795,-0.0796,-0.0791,-0.0819,-0.0823,-0.0805,-0.0806,-0.0845,-0.0848,-0.0852,-0.0847,-0.0868,-0.087,-0.0871,-0.0898,-0.0897,-0.0897,0,0,0,0,0,0,-0.0766,-0.0765,-0.077,-0.0774,-0.0776,-0.0794,-0.0788,-0.0792,-0.0798,-0.0822,-0.0826,-0.0807,-0.0845,-0.085,-0.0858,-0.0849,-0.0871,-0.0872,-0.0898,-0.0897,-0.0897,-0.0847,0,0,0,0,0,0,-0.0765,-0.0764,-0.0759,-0.0773,-0.0776,-0.0774,-0.0788,-0.0792,-0.0799,-0.0801,-0.0825,-0.0829,-0.0845,-0.0855,-0.086,-0.0852,-0.0874,-0.0898,-0.0898,-0.0897,-0.0849,-0.0845,-0.0842,0,0,0,0,0,-0.0765,-0.0753,-0.0759,-0.0759,-0.0767,-0.0773,-0.0776,-0.0791,-0.0799,-0.0798,-0.0812,-0.0829,-0.0855,-0.0856,-0.0861,-0.0854,-0.0898,-0.0898,-0.0897,-0.0851,-0.0846,-0.0842,0,0,0,0,0,0,-0.0753,-0.0754,-0.0761,-0.075,-0.076,-0.0777,-0.0776,-0.0788,-0.0799,-0.08,-0.0824,-0.0829,-0.0834,-0.0852,-0.0852,-0.0861,-0.088,-0.0881,-0.0843,-0.0839,-0.0835,-0.0815,-0.0875,0,0,0,0,0,-0.0747,-0.0737,-0.0748,-0.074,-0.0742,-0.076,-0.0765,-0.0774,-0.0786,-0.0791,-0.0808,-0.0825,-0.0836,-0.0843,-0.0858,-0.0862,-0.0878,-0.0861,-0.0858,-0.0854,-0.0842,-0.086,-0.0857,-0.0895,-0.0895,-0.0895,0,0,-0.0741,-0.0741,-0.0735,-0.0737,-0.0746,-0.0738,-0.0763,-0.0765,-0.0758,-0.0794,-0.079,-0.0813,-0.0835,-0.0838,-0.0842,-0.085,-0.0853,-0.0853,-0.085,-0.084,-0.0859,-0.0856,-0.0852,-0.0894,-0.0895,-0.0895,0,0,-0.0716,-0.0722,-0.0702,-0.0707,-0.0714,-0.0723,-0.0721,-0.0736,-0.0741,-0.0744,-0.0766,-0.0779,-0.0801,-0.0811,-0.082,-0.0805,-0.0833,-0.0815,-0.0778,-0.0796,-0.0793,-0.079,-0.0808,-0.0807,-0.0812,-0.0812,-0.0812,0,-0.0708,-0.0683,-0.07,-0.0685,-0.0679,-0.0712,-0.0689,-0.0702,-0.0717,-0.0715,-0.0735,-0.076,-0.0785,-0.078,-0.0777,-0.0795,-0.0811,-0.0792,-0.079,-0.0788,-0.0786,-0.0805,-0.0805,-0.0809,-0.0809,-0.081,-0.081,0,-0.0665,-0.0651,-0.0641,-0.0627,-0.0627,-0.0616,-0.063,-0.0633,-0.0649,-0.0661,-0.0666,-0.0701,-0.0714,-0.0729,-0.0749,-0.0745,-0.0763,-0.0784,-0.0798,-0.0779,-0.0801,-0.0801,-0.0806,-0.0806,-0.0807,-0.0808,0,0,-0.0623,-0.0611,-0.0606,-0.0586,-0.0592,-0.0581,-0.0574,-0.0568,-0.0552,-0.0588,-0.0571,-0.0606,-0.0634,-0.0645,-0.0678,-0.0696,-0.0706,-0.073,-0.0732,-0.0742,-0.0745,-0.078,-0.0785,-0.0727,-0.0727,-0.0726,-0.0766,0,-0.0579,-0.0533,-0.0541,-0.0497,-0.047,-0.0496,-0.0478,-0.0483,-0.0499,-0.0497,-0.0543,-0.0546,-0.06,-0.0604,-0.0633,-0.0683,-0.0705,-0.0693,-0.0767,-0.0769,-0.0798,-0.0786,-0.0694,-0.0723,-0.0767,-0.0767,-0.0768,0,-0.052,-0.0497,-0.0442,-0.0414,-0.0403,-0.0385,-0.0358,-0.0353,-0.0371,-0.0383,-0.041,-0.0451,-0.0484,-0.0536,-0.0612,-0.0602,-0.0667,-0.0713,-0.0716,-0.0763,-0.0805,-0.0751,-0.0723,-0.0769,-0.0769,-0.0769,-0.0769,0,-0.0453,-0.0421,-0.0371,-0.0363,-0.0341,-0.0317,-0.0311,-0.0312,-0.0289,-0.0316,-0.0304,-0.0364,-0.0383,-0.047,-0.0579,-0.0593,-0.0666,-0.07,-0.0792,-0.0795,-0.0738,-0.0737,-0.0753,-0.0753,-0.0752,-0.0752,-0.0752,0,-0.0386,-0.0344,-0.0335,-0.0304,-0.0238,-0.0253,-0.0193,-0.0199,-0.0193,-0.0155,-0.0241,-0.0224,-0.0367,-0.0432,-0.0545,-0.0667,-0.0644,-0.0778,-0.0805,-0.072,-0.0717,-0.0775,-0.0776,-0.0754,-0.0754,-0.0753,-0.0753,0,-0.0303,-0.0303,-0.0242,-0.0214,-0.02,-0.0153,-0.0113,-0.0075,-0.0085,-0.004,-0.0043,-0.0111,-0.0203,-0.0349,-0.0489,-0.0612,-0.0731,-0.0783,-0.0678,-0.0693,-0.0858,-0.0857,-0.0888,-0.0889,-0.089,-0.0891,-0.0892,0,-0.0249,-0.021,-0.0166,-0.013,-0.0112,-0.0058,-0.0016,-0.0015,0.0027,0.0038,0.0071,-0.0008,-0.0045,-0.0274,-0.0465,-0.066,-0.0734,-0.0763,-0.0784,-0.0847,-0.0871,-0.0868,-0.0865,-0.0685,-0.0684,-0.0683,-0.0683,0,-0.0145,-0.0135,-0.0092,-0.0025,0.0025,0.0082,0.0136,0.0188,0.0194,0.0234,0.0262,0.0232,0.0035,-0.0133,-0.0424,-0.0557,-0.0728,-0.0759,-0.0828,-0.0679,-0.0664,-0.0685,-0.0687,-0.0677,-0.0677,-0.0678,-0.0678,-0.0678,-0.0064,-0.002,0.0024,0.0087,0.0142,0.0213,0.0265,0.0346,0.0426,0.0508,0.0439,0.0432,0.0197,-0.0112,-0.0369,-0.0645,-0.0662,-0.0778,-0.0776,-0.0777,-0.076,-0.0749,-0.0774,-0.0775,-0.0776,-0.0777,-0.0778,0,0.005,0.0064,0.013,0.0197,0.0278,0.0268,0.0361,0.0446,0.0569,0.0641,0.0681,0.0523,0.0302,0.0008,-0.0357,-0.0622,-0.0609,-0.0737,-0.0655,-0.0659,-0.0663,-0.0639,-0.0622,-0.0623,-0.0624,-0.0624,0,0,0.0106,0.0187,0.0204,0.0318,0.0348,0.0457,0.0506,0.0642,0.073,0.0848,0.0854,0.0807,0.0421,0.0179,-0.0163,-0.0398,-0.0476,-0.0442,-0.0532,-0.0398,-0.04,-0.0646,-0.0608,0,0,0,0,0]}],[{"header":{"parameterUnit":"m.s-1","parameterCategory":2,"la1":30.2991,"la2":30.254,"lo1":-89.0895,"lo2":-89.0444,"dy":0.0017,"dx":0.0017,"nx":28,"ny":28,"refTime":"2023-10-31T09:00:00:Z","depth":"4","parameterNumber":2,"parameterNumberName":"U-component_of_CURRENTS"},"data":[0,0,0,0,0,0,0,0,0,0,0,0,0,0,0,0,0,0,0,0,0,0,0,0,0,0,0,0,0,0,0,0,0,0,0,0,0,0,0,0,0,0,0,0,0,0,0,0,0,0,0,0,0,0,0,0,0,0,0.1259,0.126,0,0.1321,0.1322,0.1323,0.1369,0.137,0.1371,0.1371,0.1416,0.1417,0.1417,0,0,0,0,0,0,0,0,0,0,0,0,0,0.1153,0.1155,0.1259,0.126,0.1261,0.1321,0.1322,0.1323,0.1369,0.137,0.1371,0.1371,0.1416,0.1416,0.1417,0,0,0,0,0,0,0,0,0,0,0,0,0,0.1203,0.1155,0.1259,0.1293,0.1297,0.1321,0.1322,0.1323,0.1369,0.137,0.1371,0.1372,0.1416,0.1416,0.1417,0.1403,0,0,0.142,0.142,0,0,0,0,0,0,0,0,0.12,0.1207,0.1287,0.1291,0.1295,0.1341,0.1301,0.135,0.1369,0.1339,0.1371,0.1372,0.139,0.1393,0.1399,0.1405,0.1407,0.142,0.1421,0.1421,0.1421,0,0,0,0,0,0,0,0.1197,0.1204,0.1281,0.1288,0.1293,0.1297,0.1305,0.131,0.1356,0.1342,0.1346,0.1357,0.1392,0.1398,0.1401,0.1408,0.142,0.1421,0.1421,0.1422,0.1503,0.1504,0,0,0,0,0,0,0.1195,0.1201,0.1279,0.1283,0.1252,0.1298,0.1307,0.1323,0.1356,0.1363,0.1356,0.1359,0.1396,0.14,0.1402,0.1472,0.1421,0.1422,0.1422,0.1501,0.1503,0.1505,0,0,0,0,0,0,0.1192,0.1201,0.1277,0.1245,0.1255,0.1299,0.1317,0.1324,0.136,0.1368,0.1374,0.1388,0.1397,0.1401,0.144,0.1471,0.1422,0.1423,0.1499,0.1502,0.1504,0.1557,0,0,0,0,0,0,0.1189,0.12,0.1221,0.1245,0.1257,0.1309,0.1316,0.1325,0.1365,0.137,0.1397,0.1401,0.1398,0.1439,0.1441,0.1471,0.1424,0.1497,0.15,0.1503,0.1553,0.156,0.1567,0,0,0,0,0,0.1185,0.1206,0.1222,0.1232,0.1281,0.131,0.1317,0.1349,0.1365,0.1384,0.1411,0.1401,0.146,0.1441,0.1443,0.1474,0.1496,0.1499,0.1503,0.155,0.1559,0.1567,0,0,0,0,0,0,0.1169,0.1213,0.1231,0.1265,0.1295,0.132,0.1345,0.1364,0.1398,0.1413,0.1418,0.1424,0.1471,0.1465,0.1445,0.1508,0.1477,0.1482,0.1512,0.1521,0.1528,0.1531,0.1424,0,0,0,0,0,0.1175,0.1208,0.1242,0.1272,0.129,0.1323,0.1343,0.1366,0.1395,0.1413,0.1434,0.1458,0.1481,0.1497,0.1513,0.1543,0.1543,0.1567,0.1574,0.158,0.1585,0.161,0.162,0.1517,0.1517,0.1517,0,0,0.1177,0.1207,0.1226,0.1272,0.13,0.133,0.1338,0.138,0.1411,0.141,0.1467,0.1485,0.1496,0.1536,0.1556,0.1539,0.1612,0.1584,0.1589,0.1591,0.1615,0.1625,0.1634,0.1519,0.1519,0.1518,0,0,0.119,0.1227,0.1257,0.1285,0.1336,0.1354,0.1373,0.1415,0.1445,0.1492,0.1505,0.1544,0.1577,0.1594,0.1604,0.1659,0.165,0.167,0.1707,0.1732,0.174,0.1747,0.1768,0.1777,0.1672,0.1672,0.1672,0,0.1194,0.1237,0.1269,0.1303,0.1334,0.1368,0.1403,0.1433,0.1485,0.1513,0.152,0.1592,0.1603,0.165,0.1675,0.1675,0.1687,0.1671,0.174,0.1747,0.1754,0.1773,0.1782,0.1675,0.1675,0.1674,0.1674,0,0.1222,0.1267,0.1288,0.1345,0.1377,0.1416,0.1457,0.1499,0.1539,0.1568,0.1637,0.1657,0.1701,0.1712,0.1712,0.177,0.1764,0.1746,0.1715,0.1767,0.1785,0.1793,0.1679,0.1678,0.1677,0.1677,0,0,0.1208,0.1293,0.1304,0.1341,0.1407,0.1434,0.1492,0.155,0.1596,0.1647,0.1706,0.1753,0.1774,0.1788,0.1797,0.182,0.188,0.181,0.181,0.1825,0.1942,0.184,0.1839,0.1878,0.1879,0.1881,0.1938,0,0.1226,0.1295,0.1334,0.1401,0.144,0.149,0.1538,0.1595,0.1647,0.171,0.1748,0.1806,0.1799,0.1834,0.1858,0.1878,0.1904,0.1866,0.1894,0.1895,0.1792,0.1845,0.1886,0.1944,0.1946,0.1947,0.1948,0,0.124,0.1289,0.1358,0.144,0.1463,0.1507,0.1595,0.1644,0.1728,0.1769,0.1832,0.1865,0.1927,0.1906,0.1966,0.1947,0.1955,0.1959,0.1961,0.185,0.1807,0.188,0.1963,0.1961,0.196,0.1959,0.1959,0,0.1213,0.1304,0.1363,0.1392,0.1486,0.1532,0.1587,0.167,0.1724,0.1818,0.1867,0.1932,0.1984,0.2005,0.2029,0.2008,0.2082,0.2047,0.1962,0.1955,0.2005,0.1996,0.2086,0.2086,0.2086,0.2086,0.2085,0,0.1208,0.1259,0.1362,0.1394,0.1467,0.1535,0.1617,0.1677,0.1772,0.1831,0.1903,0.1954,0.2014,0.2062,0.2061,0.2042,0.2111,0.1978,0.1964,0.2027,0.202,0.2011,0.2002,0.2088,0.2087,0.2087,0.2086,0,0.1169,0.1238,0.1312,0.1421,0.1459,0.1514,0.1635,0.1684,0.1781,0.1862,0.19,0.2001,0.2055,0.2098,0.214,0.2077,0.207,0.2046,0.2129,0.2117,0.1917,0.191,0.1945,0.1941,0.1939,0.1937,0.1935,0,0.1154,0.1191,0.1319,0.1364,0.142,0.1511,0.1566,0.1678,0.1725,0.1871,0.1895,0.2003,0.205,0.2027,0.2079,0.2074,0.2046,0.2026,0.1949,0.192,0.1904,0.1901,0.1897,0.1931,0.193,0.1929,0.1929,0,0.112,0.1179,0.1239,0.133,0.1401,0.1469,0.1556,0.1583,0.1701,0.1805,0.1845,0.1876,0.1937,0.1959,0.1979,0.1967,0.2025,0.1998,0.2002,0.193,0.1904,0.1889,0.1889,0.192,0.1921,0.1922,0.1922,0,0.1096,0.1127,0.1212,0.128,0.1361,0.1398,0.1457,0.1507,0.157,0.1711,0.1725,0.1826,0.1921,0.1907,0.1925,0.191,0.1867,0.1786,0.18,0.1811,0.174,0.1685,0.1631,0,0,0,0,0,0.1062,0.1089,0.1152,0.1218,0.1289,0.1337,0.1432,0.1487,0.1596,0.158,0.1645,0.169,0.1719,0.1778,0.1734,0.1871,0.188,0.1812,0.1795,0.1869,0.188,0.1807,0,0,0,0,0,0,0.1041,0.1099,0.1126,0.1145,0.1173,0.1241,0.1297,0.1374,0.1368,0.1482,0.1506,0.159,0.1646,0.1725,0.1702,0.1718,0.1674,0.1877,0.1873,0.1863,0.1873,0.1881,0.181,0,0,0,0,0]},{"header":{"parameterUnit":"m.s-1","parameterCategory":2,"la1":30.2991,"la2":30.254,"lo1":-89.0895,"lo2":-89.0444,"dy":0.0017,"dx":0.0017,"nx":28,"ny":28,"refTime":"2023-10-31T09:00:00:Z","depth":"4","parameterNumber":3,"parameterNumberName":"V-component_of_CURRENTS"},"data":[0,0,0,0,0,0,0,0,0,0,0,0,0,0,0,0,0,0,0,0,0,0,0,0,0,0,0,0,0,0,0,0,0,0,0,0,0,0,0,0,0,0,0,0,0,0,0,0,0,0,0,0,0,0,0,0,0,0,0.028,0.0279,0,0.0238,0.0237,0.0237,0.0211,0.0211,0.0211,0.021,0.0205,0.0206,0.0206,0,0,0,0,0,0,0,0,0,0,0,0,0,0.0329,0.0328,0.028,0.0279,0.0278,0.0238,0.0237,0.0237,0.0211,0.0211,0.0211,0.021,0.0205,0.0206,0.0206,0,0,0,0,0,0,0,0,0,0,0,0,0,0.03,0.0328,0.028,0.026,0.0257,0.0238,0.0237,0.0237,0.0211,0.0211,0.0211,0.021,0.0205,0.0206,0.0206,0.0214,0,0,0.0206,0.0206,0,0,0,0,0,0,0,0,0.0302,0.0299,0.0263,0.0261,0.0258,0.0228,0.0253,0.0231,0.0211,0.023,0.021,0.021,0.0216,0.0215,0.0209,0.0214,0.0214,0.0206,0.0206,0.0206,0.0206,0,0,0,0,0,0,0,0.0304,0.03,0.0264,0.0263,0.026,0.025,0.0246,0.0248,0.0227,0.0228,0.0226,0.022,0.0215,0.0209,0.0209,0.0214,0.0206,0.0206,0.0206,0.0206,0.0197,0.0196,0,0,0,0,0,0,0.0307,0.0302,0.0266,0.0263,0.0278,0.0249,0.0244,0.0239,0.0226,0.0223,0.022,0.0219,0.0209,0.0209,0.0209,0.0206,0.0206,0.0207,0.0207,0.0197,0.0197,0.0196,0,0,0,0,0,0,0.0309,0.0305,0.0267,0.0281,0.0275,0.0249,0.0243,0.0239,0.0231,0.0219,0.0217,0.0216,0.0209,0.0209,0.0206,0.0206,0.0207,0.0207,0.0198,0.0197,0.0197,0.0208,0,0,0,0,0,0,0.031,0.0305,0.0308,0.0281,0.0274,0.0259,0.0243,0.0238,0.0227,0.0224,0.0216,0.0215,0.0209,0.0206,0.0206,0.0206,0.0207,0.0198,0.0197,0.0197,0.0208,0.0207,0.0207,0,0,0,0,0,0.0312,0.032,0.0309,0.0305,0.0278,0.0259,0.0256,0.0236,0.0227,0.0227,0.0215,0.0215,0.0201,0.0206,0.0206,0.0206,0.0198,0.0198,0.0197,0.0208,0.0208,0.0207,0,0,0,0,0,0,0.0348,0.0317,0.0305,0.0303,0.0283,0.0255,0.0256,0.0238,0.0228,0.0228,0.0215,0.0214,0.0208,0.0206,0.0211,0.0199,0.0198,0.0197,0.0206,0.0206,0.0206,0.0204,0.0207,0,0,0,0,0,0.0356,0.0351,0.0319,0.032,0.0311,0.0283,0.0274,0.0258,0.0242,0.0237,0.0225,0.0215,0.0206,0.0205,0.0197,0.0199,0.0175,0.0197,0.0196,0.0196,0.0194,0.0153,0.0149,0.0194,0.0194,0.0194,0,0,0.0372,0.0353,0.0351,0.0327,0.0311,0.0302,0.0277,0.0266,0.0259,0.024,0.0232,0.0216,0.0205,0.0199,0.0197,0.0198,0.0171,0.0195,0.0196,0.0193,0.0152,0.0148,0.0144,0.0193,0.0193,0.0193,0,0,0.0394,0.0382,0.0381,0.0365,0.0339,0.0322,0.0318,0.0287,0.0275,0.0262,0.0242,0.0222,0.0216,0.0199,0.0193,0.0188,0.0169,0.0188,0.0191,0.0152,0.0148,0.0144,0.0106,0.0098,0.0191,0.0191,0.0191,0,0.0413,0.0403,0.038,0.0372,0.0362,0.0332,0.0327,0.0313,0.0284,0.0273,0.0263,0.0223,0.0213,0.0196,0.019,0.0188,0.0162,0.0195,0.0151,0.0147,0.0143,0.0105,0.0096,0.0192,0.0191,0.0191,0.0191,0,0.0425,0.042,0.0421,0.0399,0.0389,0.0382,0.0354,0.0343,0.0322,0.0298,0.027,0.0241,0.0215,0.0207,0.0199,0.0167,0.0156,0.0154,0.0153,0.0139,0.01,0.0091,0.0192,0.0192,0.0192,0.0192,0,0,0.0451,0.0432,0.0431,0.0426,0.04,0.0392,0.0384,0.0361,0.0352,0.0315,0.0291,0.0259,0.023,0.0219,0.0197,0.0162,0.0109,0.0148,0.0145,0.0112,0.0017,0.0018,0.0008,0.0098,0.0097,0.0096,0.0,0,0.0463,0.046,0.0445,0.0446,0.044,0.0417,0.0411,0.0388,0.0365,0.0337,0.029,0.0264,0.024,0.0223,0.0182,0.0131,0.0086,0.0134,0.0034,0.0031,0.0035,-0.0001,0.0091,-0.0006,-0.0008,-0.001,-0.0011,0,0.0468,0.0465,0.0469,0.046,0.0456,0.0456,0.0439,0.0429,0.0389,0.0367,0.0324,0.0287,0.023,0.0209,0.0104,0.0136,0.0074,0.0029,0.0024,0.0015,0.0015,0.001,-0.0027,-0.0026,-0.0025,-0.0023,-0.0022,0,0.0483,0.048,0.0486,0.0482,0.047,0.0469,0.0463,0.0436,0.0434,0.0384,0.0369,0.0294,0.0256,0.0169,0.0078,0.0086,-0.0042,-0.0041,-0.0105,-0.0105,-0.0081,-0.0075,-0.0131,-0.0131,-0.0131,-0.0131,-0.013,0,0.0488,0.0493,0.0496,0.0496,0.0507,0.0489,0.0495,0.0478,0.0456,0.0452,0.0386,0.036,0.0243,0.0161,0.0073,-0.0042,-0.005,-0.0117,-0.0134,-0.0074,-0.0067,-0.0087,-0.0081,-0.0134,-0.0133,-0.0133,-0.0132,0,0.0493,0.0495,0.0505,0.0507,0.0513,0.0519,0.0527,0.0529,0.0506,0.0497,0.0482,0.0401,0.0295,0.0176,0.0031,-0.0041,-0.0152,-0.0194,-0.0125,-0.0134,-0.019,-0.0182,-0.0279,-0.028,-0.0281,-0.0281,-0.0282,0,0.0489,0.0497,0.0521,0.0534,0.0537,0.0549,0.056,0.0553,0.0561,0.0526,0.0522,0.0421,0.0353,0.0152,0.0023,-0.0159,-0.0181,-0.0247,-0.0222,-0.0201,-0.0208,-0.0199,-0.019,-0.0283,-0.0283,-0.0283,-0.0283,0,0.0486,0.0503,0.0514,0.0548,0.0568,0.0592,0.061,0.0622,0.0613,0.0598,0.0551,0.044,0.0315,0.0159,0.0011,-0.0115,-0.0206,-0.0255,-0.0254,-0.0232,-0.0207,-0.0211,-0.0201,-0.0286,-0.0286,-0.0285,-0.0285,0,0.049,0.0502,0.0529,0.0556,0.0591,0.0622,0.0629,0.0635,0.0641,0.061,0.0593,0.0457,0.0378,0.018,0.005,-0.008,-0.0111,-0.015,-0.0156,-0.0155,-0.0087,-0.0035,-0.0088,0,0,0,0,0,0.049,0.0509,0.0534,0.0567,0.0603,0.0629,0.0659,0.0663,0.0664,0.064,0.0621,0.0507,0.0304,0.0215,0.0086,0.0028,-0.014,-0.013,-0.0189,-0.03,-0.0297,-0.0239,0,0,0,0,0,0,0.049,0.0519,0.0532,0.0575,0.0603,0.0647,0.0671,0.067,0.0658,0.064,0.0539,0.0479,0.0286,0.0386,0.0088,0.0046,-0.001,-0.0225,-0.0228,-0.0302,-0.0299,-0.0297,-0.0236,0,0,0,0,0]}]]